,,,PA_Meas_PMT16A,,PR_Meas_QMR101_102,,RH_Meas_QMH101,,SR_Meas_QMS101,,TA_Meas_QMH101,,GenWind,,GenWind,
date,time,status,PA,status,PR,status,RH,status,SR,status,TA,status,DirAvg,status,SpdAvg,
2010-02-22, 00:00:05,VALID,1003.31,VALID,0,VALID,92.2803,VALID,0,VALID,23.6232,VALID,82,VALID,0.632031,
2010-02-22, 00:01:05,VALID,1003.3,VALID,0,VALID,92.204,VALID,0,VALID,23.6036,VALID,82,VALID,0.155078,
2010-02-22, 00:02:05,VALID,1003.32,VALID,0,VALID,92.1658,VALID,0,VALID,23.5646,VALID,82,VALID,0.173828,
2010-02-22, 00:03:05,VALID,1003.28,VALID,0,VALID,92.1963,VALID,0,VALID,23.5451,VALID,82,VALID,0.194922,
2010-02-22, 00:04:05,VALID,1003.3,VALID,0,VALID,92.2497,VALID,0,VALID,23.5256,VALID,71,VALID,0.476563,
2010-02-22, 00:05:05,VALID,1003.26,VALID,0,VALID,92.2879,VALID,0,VALID,23.5256,VALID,67,VALID,0.427344,
2010-02-22, 00:06:05,VALID,1003.27,VALID,0,VALID,92.4481,VALID,0,VALID,23.5451,VALID,26,VALID,0.369531,
2010-02-22, 00:07:05,VALID,1003.26,VALID,0,VALID,92.5397,VALID,0,VALID,23.5628,VALID,23,VALID,0.353516,
2010-02-22, 00:08:05,VALID,1003.22,VALID,0,VALID,92.4557,VALID,0,VALID,23.6036,VALID,23,VALID,0.542969,
2010-02-22, 00:09:04,VALID,1003.2,VALID,0,VALID,92.4481,VALID,0,VALID,23.5646,VALID,7,VALID,0.3,
2010-02-22, 00:10:04,VALID,1003.17,VALID,0,VALID,92.4252,VALID,0,VALID,23.5433,VALID,7,VALID,0.282813,
2010-02-22, 00:11:04,VALID,1003.15,VALID,0,VALID,92.3031,VALID,0,VALID,23.5451,VALID,7,VALID,0.0890625,
2010-02-22, 00:12:04,VALID,1003.13,VALID,0,VALID,92.3031,VALID,0,VALID,23.5061,VALID,7,VALID,0.0566406,
2010-02-22, 00:13:04,VALID,1003.11,VALID,0,VALID,92.2268,VALID,0,VALID,23.4866,VALID,7,VALID,0.164844,
2010-02-22, 00:14:04,VALID,1003.09,VALID,0,VALID,92.2345,VALID,0,VALID,23.4475,VALID,7,VALID,0.400781,
2010-02-22, 00:15:04,VALID,1003.08,VALID,0,VALID,92.2574,VALID,0,VALID,23.4475,VALID,7,VALID,0.516016,
2010-02-22, 00:16:04,VALID,1003.08,VALID,0,VALID,92.4328,VALID,0,VALID,23.428,VALID,7,VALID,0.614453,
2010-02-22, 00:17:04,VALID,1003.04,VALID,0,VALID,92.532,VALID,0,VALID,23.4475,VALID,56,VALID,0.615625,
2010-02-22, 00:18:04,VALID,1003.04,VALID,0,VALID,92.4786,VALID,0,VALID,23.428,VALID,56,VALID,0.652344,
2010-02-22, 00:19:04,VALID,1003.02,VALID,0,VALID,92.4176,VALID,0,VALID,23.4085,VALID,56,VALID,0.630859,
2010-02-22, 00:20:04,VALID,1002.99,VALID,0,VALID,92.4328,VALID,0,VALID,23.389,VALID,56,VALID,0.509766,
2010-02-22, 00:21:04,VALID,1002.98,VALID,0,VALID,92.3947,VALID,0,VALID,23.3695,VALID,56,VALID,0.353906,
2010-02-22, 00:22:04,VALID,1002.96,VALID,0,VALID,92.3947,VALID,0,VALID,23.3305,VALID,56,VALID,0.188672,
2010-02-22, 00:23:04,VALID,1002.93,VALID,0,VALID,92.3871,VALID,0,VALID,23.311,VALID,56,VALID,0,
2010-02-22, 00:24:04,VALID,1002.92,VALID,0,VALID,92.3871,VALID,0,VALID,23.2915,VALID,56,VALID,0,
2010-02-22, 00:25:04,VALID,1002.91,VALID,0,VALID,92.5473,VALID,0,VALID,23.2915,VALID,56,VALID,0,
2010-02-22, 00:26:04,VALID,1002.91,VALID,0,VALID,92.6236,VALID,0,VALID,23.3305,VALID,56,VALID,0,
2010-02-22, 00:27:04,VALID,1002.88,VALID,0,VALID,92.6007,VALID,0,VALID,23.35,VALID,56,VALID,0,
2010-02-22, 00:28:04,VALID,1002.86,VALID,0,VALID,92.5702,VALID,0,VALID,23.3305,VALID,56,VALID,0,
2010-02-22, 00:29:04,VALID,1002.84,VALID,0,VALID,92.5778,VALID,0,VALID,23.311,VALID,56,VALID,0,
2010-02-22, 00:30:04,VALID,1002.84,VALID,0,VALID,92.6007,VALID,0,VALID,23.311,VALID,56,VALID,0,
2010-02-22, 00:31:04,VALID,1002.78,VALID,0,VALID,92.7228,VALID,0,VALID,23.311,VALID,91,VALID,0.444922,
2010-02-22, 00:32:04,VALID,1002.81,VALID,0,VALID,92.7304,VALID,0,VALID,23.3305,VALID,91,VALID,0.226172,
2010-02-22, 00:33:04,VALID,1002.76,VALID,0,VALID,92.6999,VALID,0,VALID,23.35,VALID,91,VALID,0.159766,
2010-02-22, 00:34:04,VALID,1002.74,VALID,0,VALID,92.6083,VALID,0,VALID,23.3305,VALID,91,VALID,0.342578,
2010-02-22, 00:35:04,VALID,1002.73,VALID,0,VALID,92.6465,VALID,0,VALID,23.3305,VALID,90,VALID,0.684375,
2010-02-22, 00:36:04,VALID,1002.71,VALID,0,VALID,92.7151,VALID,0,VALID,23.311,VALID,90,VALID,0.596875,
2010-02-22, 00:37:04,VALID,1002.75,VALID,0,VALID,92.6923,VALID,0,VALID,23.3305,VALID,90,VALID,0.701563,
2010-02-22, 00:38:04,VALID,1002.7,VALID,0,VALID,92.6388,VALID,0,VALID,23.311,VALID,90,VALID,0.380469,
2010-02-22, 00:39:04,VALID,1002.71,VALID,0,VALID,92.7304,VALID,0,VALID,23.3305,VALID,90,VALID,0.242969,
2010-02-22, 00:40:04,VALID,1002.7,VALID,0,VALID,92.7228,VALID,0,VALID,23.3305,VALID,90,VALID,0.0105469,
2010-02-22, 00:41:04,VALID,1002.67,VALID,0,VALID,92.6694,VALID,0,VALID,23.3305,VALID,90,VALID,0,
2010-02-22, 00:42:04,VALID,1002.65,VALID,0,VALID,92.616,VALID,0,VALID,23.311,VALID,90,VALID,0,
2010-02-22, 00:43:04,VALID,1002.62,VALID,0,VALID,92.6083,VALID,0,VALID,23.311,VALID,90,VALID,0,
2010-02-22, 00:44:04,VALID,1002.63,VALID,0,VALID,92.5778,VALID,0,VALID,23.2915,VALID,90,VALID,0,
2010-02-22, 00:45:04,VALID,1002.61,VALID,0,VALID,92.6236,VALID,0,VALID,23.311,VALID,90,VALID,0,
2010-02-22, 00:46:04,VALID,1002.59,VALID,0,VALID,92.6617,VALID,0,VALID,23.3305,VALID,90,VALID,0,
2010-02-22, 00:47:04,VALID,1002.58,VALID,0,VALID,92.7075,VALID,0,VALID,23.35,VALID,90,VALID,0,
2010-02-22, 00:48:04,VALID,1002.56,VALID,0,VALID,92.8067,VALID,0,VALID,23.3677,VALID,90,VALID,0.103906,
2010-02-22, 00:49:04,VALID,1002.55,VALID,0,VALID,92.7914,VALID,0,VALID,23.4085,VALID,123,VALID,0.740234,
2010-02-22, 00:50:04,VALID,1002.51,VALID,0,VALID,92.7609,VALID,0,VALID,23.4085,VALID,122,VALID,0.839844,
2010-02-22, 00:51:04,VALID,1002.56,VALID,0,VALID,92.7609,VALID,0,VALID,23.4085,VALID,104,VALID,0.9375,
2010-02-22, 00:52:04,VALID,1002.54,VALID,0,VALID,92.8296,VALID,0,VALID,23.428,VALID,105,VALID,0.852734,
2010-02-22, 00:53:04,VALID,1002.56,VALID,0,VALID,92.8525,VALID,0,VALID,23.4671,VALID,101,VALID,0.691797,
2010-02-22, 00:54:04,VALID,1002.55,VALID,0,VALID,92.7762,VALID,0,VALID,23.4866,VALID,101,VALID,0.342187,
2010-02-22, 00:55:04,VALID,1002.53,VALID,0,VALID,92.7533,VALID,0,VALID,23.4671,VALID,101,VALID,0.447656,
2010-02-22, 00:56:04,VALID,1002.5,VALID,0,VALID,92.6999,VALID,0,VALID,23.4671,VALID,101,VALID,0.239453,
2010-02-22, 00:57:04,VALID,1002.46,VALID,0,VALID,92.6007,VALID,0,VALID,23.4458,VALID,101,VALID,0,
2010-02-22, 00:58:04,VALID,1002.45,VALID,0,VALID,92.6312,VALID,0,VALID,23.4475,VALID,101,VALID,0.0667969,
2010-02-22, 00:59:04,VALID,1002.43,VALID,0,VALID,92.6465,VALID,0,VALID,23.4688,VALID,101,VALID,0,
2010-02-22, 01:00:04,VALID,1002.45,VALID,0,VALID,92.6694,VALID,0,VALID,23.4671,VALID,101,VALID,0.0105469,
2010-02-22, 01:01:04,VALID,1002.41,VALID,0,VALID,92.6388,VALID,0,VALID,23.4671,VALID,101,VALID,0,
2010-02-22, 01:02:04,VALID,1002.41,VALID,0,VALID,92.677,VALID,0,VALID,23.4263,VALID,101,VALID,0,
2010-02-22, 01:03:04,VALID,1002.4,VALID,0,VALID,92.6617,VALID,0,VALID,23.4671,VALID,101,VALID,0,
2010-02-22, 01:04:04,VALID,1002.4,VALID,0,VALID,92.5778,VALID,0,VALID,23.4671,VALID,101,VALID,0,
2010-02-22, 01:05:04,VALID,1002.41,VALID,0,VALID,92.5931,VALID,0,VALID,23.4475,VALID,101,VALID,0,
2010-02-22, 01:06:04,VALID,1002.41,VALID,0,VALID,92.5854,VALID,0,VALID,23.4671,VALID,81,VALID,0.813672,
2010-02-22, 01:07:04,VALID,1002.41,VALID,0,VALID,92.4557,VALID,0,VALID,23.4475,VALID,92,VALID,0.971484,
2010-02-22, 01:08:04,VALID,1002.42,VALID,0,VALID,92.4328,VALID,0,VALID,23.428,VALID,104,VALID,0.758594,
2010-02-22, 01:09:04,VALID,1002.4,VALID,0,VALID,92.3794,VALID,0,VALID,23.428,VALID,107,VALID,0.542969,
2010-02-22, 01:10:04,VALID,1002.43,VALID,0,VALID,92.41,VALID,0,VALID,23.4067,VALID,107,VALID,0.701953,
2010-02-22, 01:11:04,VALID,1002.42,VALID,0,VALID,92.4405,VALID,0,VALID,23.4671,VALID,109,VALID,0.649609,
2010-02-22, 01:12:04,VALID,1002.4,VALID,0,VALID,92.4023,VALID,0,VALID,23.4458,VALID,122,VALID,0.520703,
2010-02-22, 01:13:04,VALID,1002.42,VALID,0,VALID,92.41,VALID,0,VALID,23.4671,VALID,122,VALID,0.63125,
2010-02-22, 01:14:04,VALID,1002.39,VALID,0,VALID,92.3413,VALID,0,VALID,23.4671,VALID,122,VALID,0.569922,
2010-02-22, 01:15:04,VALID,1002.39,VALID,0,VALID,92.3031,VALID,0,VALID,23.4458,VALID,122,VALID,0.304688,
2010-02-22, 01:16:04,VALID,1002.42,VALID,0,VALID,92.2726,VALID,0,VALID,23.4866,VALID,122,VALID,0.307031,
2010-02-22, 01:17:04,VALID,1002.42,VALID,0,VALID,92.2268,VALID,0,VALID,23.4671,VALID,115,VALID,0.577344,
2010-02-22, 01:18:04,VALID,1002.42,VALID,0,VALID,92.2955,VALID,0,VALID,23.4671,VALID,115,VALID,0.360938,
2010-02-22, 01:19:04,VALID,1002.37,VALID,0,VALID,92.2345,VALID,0,VALID,23.4671,VALID,115,VALID,0.283984,
2010-02-22, 01:20:04,VALID,1002.4,VALID,0,VALID,92.2268,VALID,0,VALID,23.4671,VALID,115,VALID,0.430078,
2010-02-22, 01:21:04,VALID,1002.38,VALID,0,VALID,92.2345,VALID,0,VALID,23.4458,VALID,115,VALID,0.530469,
2010-02-22, 01:22:04,VALID,1002.36,VALID,0,VALID,92.2345,VALID,0,VALID,23.4671,VALID,114,VALID,0.456641,
2010-02-22, 01:23:04,VALID,1002.34,VALID,0,VALID,92.2497,VALID,0,VALID,23.4671,VALID,114,VALID,0.594141,
2010-02-22, 01:24:04,VALID,1002.33,VALID,0,VALID,92.2497,VALID,0,VALID,23.4653,VALID,112,VALID,0.629687,
2010-02-22, 01:25:04,VALID,1002.34,VALID,0,VALID,92.1734,VALID,0,VALID,23.4866,VALID,112,VALID,0.232812,
2010-02-22, 01:26:04,VALID,1002.32,VALID,0,VALID,92.1277,VALID,0,VALID,23.4866,VALID,112,VALID,0.163672,
2010-02-22, 01:27:04,VALID,1002.32,VALID,0,VALID,92.0743,VALID,0,VALID,23.4671,VALID,112,VALID,0,
2010-02-22, 01:28:04,VALID,1002.3,VALID,0,VALID,92.0819,VALID,0,VALID,23.4458,VALID,112,VALID,0,
2010-02-22, 01:29:04,VALID,1002.33,VALID,0,VALID,92.0056,VALID,0.112286,VALID,23.4458,VALID,112,VALID,0,
2010-02-22, 01:30:04,VALID,1002.29,VALID,0,VALID,91.9064,VALID,0,VALID,23.4085,VALID,112,VALID,0,
2010-02-22, 01:31:04,VALID,1002.28,VALID,0,VALID,91.8911,VALID,0,VALID,23.389,VALID,112,VALID,0,
2010-02-22, 01:32:04,VALID,1002.29,VALID,0,VALID,91.8454,VALID,0,VALID,23.3695,VALID,112,VALID,0,
2010-02-22, 01:33:04,VALID,1002.3,VALID,0,VALID,91.792,VALID,0,VALID,23.3092,VALID,112,VALID,0,
2010-02-22, 01:34:04,VALID,1002.27,VALID,0,VALID,91.8225,VALID,0,VALID,23.311,VALID,112,VALID,0,
2010-02-22, 01:35:04,VALID,1002.3,VALID,0,VALID,91.914,VALID,0,VALID,23.2915,VALID,112,VALID,0,
2010-02-22, 01:36:04,VALID,1002.29,VALID,0,VALID,91.9903,VALID,0,VALID,23.311,VALID,112,VALID,0,
2010-02-22, 01:37:04,VALID,1002.29,VALID,0,VALID,92.0056,VALID,0,VALID,23.311,VALID,112,VALID,0,
2010-02-22, 01:38:04,VALID,1002.32,VALID,0,VALID,91.9751,VALID,0,VALID,23.311,VALID,112,VALID,0,
2010-02-22, 01:39:04,VALID,1002.32,VALID,0,VALID,91.9751,VALID,0,VALID,23.2915,VALID,112,VALID,0,
2010-02-22, 01:40:04,VALID,1002.32,VALID,0,VALID,92.0132,VALID,0,VALID,23.2915,VALID,151,VALID,0.375781,
2010-02-22, 01:41:04,VALID,1002.31,VALID,0,VALID,91.9827,VALID,0,VALID,23.2719,VALID,155,VALID,0.719141,
2010-02-22, 01:42:04,VALID,1002.31,VALID,0,VALID,91.8988,VALID,0,VALID,23.2524,VALID,155,VALID,0.707031,
2010-02-22, 01:43:04,VALID,1002.31,VALID,0,VALID,91.9293,VALID,0,VALID,23.2524,VALID,146,VALID,0.76875,
2010-02-22, 01:44:04,VALID,1002.31,VALID,0,VALID,91.8683,VALID,0,VALID,23.2719,VALID,133,VALID,1.05859,
2010-02-22, 01:45:04,VALID,1002.29,VALID,0,VALID,91.8988,VALID,0,VALID,23.311,VALID,133,VALID,0.880859,
2010-02-22, 01:46:04,VALID,1002.28,VALID,0,VALID,91.7996,VALID,0,VALID,23.3695,VALID,133,VALID,0.644922,
2010-02-22, 01:47:04,VALID,1002.28,VALID,0,VALID,91.5554,VALID,0,VALID,23.4085,VALID,133,VALID,0.505078,
2010-02-22, 01:48:04,VALID,1002.24,VALID,0,VALID,91.4486,VALID,0,VALID,23.428,VALID,133,VALID,0.362109,
2010-02-22, 01:49:04,VALID,1002.25,VALID,0,VALID,91.3113,VALID,0,VALID,23.428,VALID,133,VALID,0.308984,
2010-02-22, 01:50:04,VALID,1002.24,VALID,0,VALID,91.2045,VALID,0,VALID,23.4067,VALID,133,VALID,0.260156,
2010-02-22, 01:51:04,VALID,1002.25,VALID,0,VALID,91.1663,VALID,0,VALID,23.4085,VALID,133,VALID,0.362891,
2010-02-22, 01:52:04,VALID,1002.25,VALID,0,VALID,91.0977,VALID,0,VALID,23.428,VALID,133,VALID,0.276953,
2010-02-22, 01:53:04,VALID,1002.28,VALID,0,VALID,91.1053,VALID,0,VALID,23.428,VALID,133,VALID,0.273047,
2010-02-22, 01:54:04,VALID,1002.3,VALID,0,VALID,91.1511,VALID,0,VALID,23.428,VALID,133,VALID,0.354297,
2010-02-22, 01:55:04,VALID,1002.3,VALID,0,VALID,91.1358,VALID,0,VALID,23.4671,VALID,133,VALID,0.155469,
2010-02-22, 01:56:04,VALID,1002.3,VALID,0,VALID,91.09,VALID,0,VALID,23.4475,VALID,133,VALID,0.266797,
2010-02-22, 01:57:04,VALID,1002.29,VALID,0,VALID,91.0595,VALID,0,VALID,23.4671,VALID,133,VALID,0.346094,
2010-02-22, 01:58:04,VALID,1002.29,VALID,0,VALID,91.0214,VALID,0,VALID,23.5061,VALID,133,VALID,0.3125,
2010-02-22, 01:59:04,VALID,1002.27,VALID,0,VALID,90.8459,VALID,0,VALID,23.5061,VALID,133,VALID,0.531641,
2010-02-22, 02:00:04,VALID,1002.3,VALID,0,VALID,90.8001,VALID,0,VALID,23.4866,VALID,133,VALID,0.482031,
2010-02-22, 02:01:04,VALID,1002.29,VALID,0,VALID,90.7849,VALID,0,VALID,23.4866,VALID,133,VALID,0.571484,
2010-02-22, 02:02:04,VALID,1002.28,VALID,0,VALID,90.8383,VALID,0,VALID,23.4866,VALID,133,VALID,0.687891,
2010-02-22, 02:03:04,VALID,1002.28,VALID,0,VALID,90.8001,VALID,0,VALID,23.4866,VALID,133,VALID,0.577344,
2010-02-22, 02:04:04,VALID,1002.29,VALID,0,VALID,90.7925,VALID,0,VALID,23.4848,VALID,133,VALID,0.523828,
2010-02-22, 02:05:04,VALID,1002.29,VALID,0,VALID,90.6857,VALID,0,VALID,23.4866,VALID,133,VALID,0.601563,
2010-02-22, 02:06:04,VALID,1002.3,VALID,0,VALID,90.6246,VALID,0,VALID,23.4866,VALID,133,VALID,0.500781,
2010-02-22, 02:07:04,VALID,1002.32,VALID,0,VALID,90.6933,VALID,0,VALID,23.4866,VALID,133,VALID,0.526172,
2010-02-22, 02:08:04,VALID,1002.32,VALID,0,VALID,90.6323,VALID,0,VALID,23.4671,VALID,133,VALID,0.592188,
2010-02-22, 02:09:04,VALID,1002.29,VALID,0,VALID,90.5483,VALID,0,VALID,23.4475,VALID,133,VALID,0.708203,
2010-02-22, 02:10:04,VALID,1002.28,VALID,0,VALID,90.5102,VALID,0,VALID,23.428,VALID,133,VALID,0.753516,
2010-02-22, 02:11:04,VALID,1002.3,VALID,0,VALID,90.5407,VALID,0,VALID,23.389,VALID,133,VALID,0.659766,
2010-02-22, 02:12:04,VALID,1002.29,VALID,0,VALID,90.6017,VALID,0,VALID,23.35,VALID,130,VALID,0.605469,
2010-02-22, 02:13:04,VALID,1002.26,VALID,0,VALID,90.6551,VALID,0,VALID,23.3092,VALID,130,VALID,0.460938,
2010-02-22, 02:14:04,VALID,1002.24,VALID,0,VALID,90.6933,VALID,0,VALID,23.2915,VALID,130,VALID,0.430078,
2010-02-22, 02:15:04,VALID,1002.26,VALID,0,VALID,90.8535,VALID,0,VALID,23.2719,VALID,130,VALID,0.317578,
2010-02-22, 02:16:04,VALID,1002.25,VALID,0,VALID,91.0519,VALID,0,VALID,23.2524,VALID,130,VALID,0.271875,
2010-02-22, 02:17:04,VALID,1002.25,VALID,0,VALID,91.2426,VALID,0,VALID,23.2524,VALID,130,VALID,0,
2010-02-22, 02:18:04,VALID,1002.26,VALID,0,VALID,91.3571,VALID,0,VALID,23.2524,VALID,130,VALID,0,
2010-02-22, 02:19:04,VALID,1002.23,VALID,0,VALID,91.441,VALID,0,VALID,23.2719,VALID,130,VALID,0,
2010-02-22, 02:20:04,VALID,1002.25,VALID,0,VALID,91.5097,VALID,0,VALID,23.2507,VALID,130,VALID,0,
2010-02-22, 02:21:04,VALID,1002.23,VALID,0,VALID,91.5783,VALID,0.112286,VALID,23.2719,VALID,130,VALID,0,
2010-02-22, 02:22:04,VALID,1002.25,VALID,0,VALID,91.6394,VALID,0,VALID,23.2524,VALID,130,VALID,0,
2010-02-22, 02:23:04,VALID,1002.23,VALID,0,VALID,91.6394,VALID,0,VALID,23.2524,VALID,130,VALID,0,
2010-02-22, 02:24:04,VALID,1002.23,VALID,0,VALID,91.5936,VALID,0,VALID,23.2329,VALID,130,VALID,0,
2010-02-22, 02:25:04,VALID,1002.27,VALID,0,VALID,91.5478,VALID,0,VALID,23.1531,VALID,130,VALID,0,
2010-02-22, 02:26:04,VALID,1002.22,VALID,0,VALID,91.7691,VALID,0,VALID,23.1939,VALID,130,VALID,0,
2010-02-22, 02:27:04,VALID,1002.22,VALID,0,VALID,91.8377,VALID,0,VALID,23.1744,VALID,130,VALID,0,
2010-02-22, 02:28:04,VALID,1002.23,VALID,0,VALID,91.8835,VALID,0,VALID,23.1531,VALID,130,VALID,0,
2010-02-22, 02:29:04,VALID,1002.21,VALID,0,VALID,91.8759,VALID,0,VALID,23.1549,VALID,130,VALID,0,
2010-02-22, 02:30:04,VALID,1002.2,VALID,0,VALID,91.8835,VALID,0,VALID,23.1336,VALID,130,VALID,0,
2010-02-22, 02:31:04,VALID,1002.17,VALID,0,VALID,91.8759,VALID,0,VALID,23.0946,VALID,130,VALID,0,
2010-02-22, 02:32:04,VALID,1002.16,VALID,0,VALID,91.8835,VALID,0,VALID,23.0751,VALID,130,VALID,0,
2010-02-22, 02:33:04,VALID,1002.17,VALID,0,VALID,91.998,VALID,0,VALID,23.0556,VALID,130,VALID,0,
2010-02-22, 02:34:04,VALID,1002.18,VALID,0,VALID,92.0056,VALID,0,VALID,23.0361,VALID,130,VALID,0,
2010-02-22, 02:35:04,VALID,1002.17,VALID,0,VALID,91.9903,VALID,0,VALID,23.0378,VALID,130,VALID,0,
2010-02-22, 02:36:04,VALID,1002.16,VALID,0,VALID,91.9522,VALID,0,VALID,22.9776,VALID,130,VALID,0,
2010-02-22, 02:37:04,VALID,1002.15,VALID,0,VALID,91.9751,VALID,0,VALID,22.9598,VALID,130,VALID,0,
2010-02-22, 02:38:04,VALID,1002.17,VALID,0,VALID,92.0209,VALID,0,VALID,22.88,VALID,130,VALID,0,
2010-02-22, 02:39:04,VALID,1002.16,VALID,0,VALID,92.2726,VALID,0,VALID,22.9013,VALID,130,VALID,0,
2010-02-22, 02:40:04,VALID,1002.16,VALID,0,VALID,92.4176,VALID,0,VALID,22.9208,VALID,130,VALID,0,
2010-02-22, 02:41:04,VALID,1002.17,VALID,0,VALID,92.3642,VALID,0,VALID,22.9403,VALID,130,VALID,0,
2010-02-22, 02:42:04,VALID,1002.2,VALID,0,VALID,92.5778,VALID,0,VALID,22.9385,VALID,130,VALID,0,
2010-02-22, 02:43:04,VALID,1002.17,VALID,0,VALID,92.532,VALID,0,VALID,22.9598,VALID,130,VALID,0,
2010-02-22, 02:44:04,VALID,1002.18,VALID,0,VALID,92.4863,VALID,0,VALID,22.9403,VALID,130,VALID,0,
2010-02-22, 02:45:04,VALID,1002.21,VALID,0,VALID,92.41,VALID,0,VALID,22.9208,VALID,130,VALID,0,
2010-02-22, 02:46:04,VALID,1002.19,VALID,0,VALID,92.41,VALID,0,VALID,22.8623,VALID,130,VALID,0,
2010-02-22, 02:47:04,VALID,1002.21,VALID,0,VALID,92.4252,VALID,0,VALID,22.8427,VALID,130,VALID,0,
2010-02-22, 02:48:04,VALID,1002.17,VALID,0,VALID,92.4863,VALID,0,VALID,22.8232,VALID,130,VALID,0,
2010-02-22, 02:49:04,VALID,1002.16,VALID,0,VALID,92.6083,VALID,0,VALID,22.8232,VALID,130,VALID,0,
2010-02-22, 02:50:04,VALID,1002.19,VALID,0,VALID,92.6999,VALID,0,VALID,22.8232,VALID,99,VALID,0,
2010-02-22, 02:51:04,VALID,1002.18,VALID,0,VALID,92.8677,VALID,0,VALID,22.8623,VALID,61,VALID,0.911719,
2010-02-22, 02:52:04,VALID,1002.15,VALID,0,VALID,92.6999,VALID,0,VALID,22.8427,VALID,60,VALID,1.00312,
2010-02-22, 02:53:04,VALID,1002.13,VALID,0,VALID,92.6999,VALID,0,VALID,22.802,VALID,59,VALID,1.11289,
2010-02-22, 02:54:04,VALID,1002.16,VALID,0,VALID,92.7457,VALID,0,VALID,22.8037,VALID,58,VALID,1.04961,
2010-02-22, 02:55:04,VALID,1002.15,VALID,0,VALID,92.7609,VALID,0,VALID,22.763,VALID,58,VALID,0.809375,
2010-02-22, 02:56:04,VALID,1002.16,VALID,0,VALID,92.7075,VALID,0,VALID,22.7452,VALID,60,VALID,0.733203,
2010-02-22, 02:57:04,VALID,1002.15,VALID,0,VALID,92.8143,VALID,0,VALID,22.7452,VALID,60,VALID,0.794922,
2010-02-22, 02:58:04,VALID,1002.14,VALID,0,VALID,92.8983,VALID,0,VALID,22.7452,VALID,60,VALID,0.65,
2010-02-22, 02:59:04,VALID,1002.13,VALID,0,VALID,92.9364,VALID,0,VALID,22.7647,VALID,60,VALID,0.574609,
2010-02-22, 03:00:04,VALID,1002.15,VALID,0,VALID,92.9517,VALID,0,VALID,22.7647,VALID,60,VALID,0.56875,
2010-02-22, 03:01:04,VALID,1002.14,VALID,0,VALID,92.9059,VALID,0,VALID,22.7647,VALID,60,VALID,0.653125,
2010-02-22, 03:02:04,VALID,1002.14,VALID,0,VALID,93.0051,VALID,0,VALID,22.7647,VALID,60,VALID,0.729688,
2010-02-22, 03:03:04,VALID,1002.15,VALID,0,VALID,93.0432,VALID,0,VALID,22.8037,VALID,63,VALID,0.738281,
2010-02-22, 03:04:04,VALID,1002.14,VALID,0,VALID,93.0585,VALID,0,VALID,22.8037,VALID,64,VALID,0.825,
2010-02-22, 03:05:04,VALID,1002.14,VALID,0,VALID,93.0356,VALID,0,VALID,22.8037,VALID,64,VALID,0.892578,
2010-02-22, 03:06:04,VALID,1002.14,VALID,0,VALID,93.028,VALID,0,VALID,22.8037,VALID,64,VALID,0.913281,
2010-02-22, 03:07:04,VALID,1002.11,VALID,0,VALID,92.9822,VALID,0,VALID,22.7842,VALID,64,VALID,0.839844,
2010-02-22, 03:08:04,VALID,1002.12,VALID,0,VALID,92.9517,VALID,0,VALID,22.7452,VALID,64,VALID,0.536719,
2010-02-22, 03:09:04,VALID,1002.11,VALID,0,VALID,92.8677,VALID,0.112286,VALID,22.7257,VALID,64,VALID,0.251172,
2010-02-22, 03:10:04,VALID,1002.09,VALID,0,VALID,92.883,VALID,0,VALID,22.6867,VALID,64,VALID,0,
2010-02-22, 03:11:04,VALID,1002.09,VALID,0,VALID,92.8601,VALID,0,VALID,22.6672,VALID,64,VALID,0,
2010-02-22, 03:12:04,VALID,1002.08,VALID,0,VALID,92.9517,VALID,0,VALID,22.6672,VALID,64,VALID,0,
2010-02-22, 03:13:04,VALID,1002.05,VALID,0,VALID,92.9974,VALID,0,VALID,22.6672,VALID,64,VALID,0,
2010-02-22, 03:14:04,VALID,1002.08,VALID,0,VALID,93.028,VALID,0,VALID,22.6867,VALID,64,VALID,0,
2010-02-22, 03:15:04,VALID,1002.04,VALID,0,VALID,93.1119,VALID,0,VALID,22.6867,VALID,64,VALID,0,
2010-02-22, 03:16:04,VALID,1002.05,VALID,0,VALID,93.2034,VALID,0,VALID,22.7062,VALID,64,VALID,0,
2010-02-22, 03:17:04,VALID,1002.03,VALID,0,VALID,93.2568,VALID,0,VALID,22.7647,VALID,64,VALID,0,
2010-02-22, 03:18:04,VALID,1002.01,VALID,0,VALID,93.3103,VALID,0,VALID,22.8232,VALID,64,VALID,0,
2010-02-22, 03:19:04,VALID,1001.97,VALID,0,VALID,93.2416,VALID,0,VALID,22.8232,VALID,64,VALID,0,
2010-02-22, 03:20:04,VALID,1002.03,VALID,0,VALID,93.2111,VALID,0,VALID,22.8232,VALID,64,VALID,0,
2010-02-22, 03:21:04,VALID,1002.04,VALID,0,VALID,93.1119,VALID,0,VALID,22.8232,VALID,64,VALID,0,
2010-02-22, 03:22:04,VALID,1002,VALID,0,VALID,93.089,VALID,0,VALID,22.7842,VALID,64,VALID,0,
2010-02-22, 03:23:04,VALID,1002.02,VALID,0,VALID,93.089,VALID,0,VALID,22.7647,VALID,64,VALID,0,
2010-02-22, 03:24:04,VALID,1002.02,VALID,0,VALID,93.089,VALID,0,VALID,22.786,VALID,64,VALID,0,
2010-02-22, 03:25:04,VALID,1002,VALID,0,VALID,93.1271,VALID,0,VALID,22.7452,VALID,64,VALID,0,
2010-02-22, 03:26:04,VALID,1002.02,VALID,0,VALID,93.2034,VALID,0,VALID,22.7647,VALID,64,VALID,0,
2010-02-22, 03:27:04,VALID,1002.02,VALID,0,VALID,93.2645,VALID,0,VALID,22.8037,VALID,64,VALID,0,
2010-02-22, 03:28:04,VALID,1002.01,VALID,0,VALID,93.295,VALID,0,VALID,22.8427,VALID,64,VALID,0,
2010-02-22, 03:29:04,VALID,1002.02,VALID,0,VALID,93.3026,VALID,0,VALID,22.8835,VALID,109,VALID,0.487109,
2010-02-22, 03:30:04,VALID,1002.01,VALID,0,VALID,93.3255,VALID,0,VALID,22.903,VALID,128,VALID,0.663281,
2010-02-22, 03:31:04,VALID,1002.01,VALID,0,VALID,93.3484,VALID,0,VALID,22.9013,VALID,128,VALID,0.728906,
2010-02-22, 03:32:04,VALID,1002.01,VALID,0,VALID,93.3484,VALID,0,VALID,22.9403,VALID,128,VALID,0.661328,
2010-02-22, 03:33:04,VALID,1001.99,VALID,0,VALID,93.356,VALID,0,VALID,22.919,VALID,128,VALID,0.509766,
2010-02-22, 03:34:04,VALID,1001.99,VALID,0,VALID,93.3484,VALID,0,VALID,22.9598,VALID,128,VALID,0.469531,
2010-02-22, 03:35:04,VALID,1002,VALID,0,VALID,93.2721,VALID,0,VALID,22.9403,VALID,128,VALID,0.476953,
2010-02-22, 03:36:04,VALID,1002.02,VALID,0,VALID,93.1577,VALID,0,VALID,22.9225,VALID,128,VALID,0.434375,
2010-02-22, 03:37:04,VALID,1001.99,VALID,0,VALID,93.0814,VALID,0,VALID,22.8623,VALID,128,VALID,0,
2010-02-22, 03:38:04,VALID,1002.06,VALID,0,VALID,93.0585,VALID,0,VALID,22.8232,VALID,128,VALID,0,
2010-02-22, 03:39:04,VALID,1002.05,VALID,0,VALID,93.0203,VALID,0,VALID,22.7842,VALID,128,VALID,0,
2010-02-22, 03:40:04,VALID,1002.06,VALID,0,VALID,92.9669,VALID,0,VALID,22.7469,VALID,128,VALID,0,
2010-02-22, 03:41:04,VALID,1002.08,VALID,0,VALID,92.9669,VALID,0,VALID,22.6672,VALID,128,VALID,0,
2010-02-22, 03:42:04,VALID,1002.1,VALID,0,VALID,93.0127,VALID,0,VALID,22.6477,VALID,128,VALID,0,
2010-02-22, 03:43:04,VALID,1002.07,VALID,0,VALID,93.1271,VALID,0,VALID,22.6672,VALID,103,VALID,0.272656,
2010-02-22, 03:44:04,VALID,1002.07,VALID,0,VALID,93.1882,VALID,0,VALID,22.7079,VALID,111,VALID,0.596484,
2010-02-22, 03:45:04,VALID,1002.06,VALID,0,VALID,93.1958,VALID,0,VALID,22.7274,VALID,98,VALID,0.517187,
2010-02-22, 03:46:04,VALID,1002.05,VALID,0,VALID,93.15,VALID,0,VALID,22.6672,VALID,98,VALID,0.196094,
2010-02-22, 03:47:04,VALID,1002.06,VALID,0,VALID,93.1729,VALID,0,VALID,22.6884,VALID,98,VALID,0.263281,
2010-02-22, 03:48:04,VALID,1002.04,VALID,0,VALID,93.1653,VALID,0,VALID,22.6672,VALID,98,VALID,0,
2010-02-22, 03:49:04,VALID,1002.06,VALID,0,VALID,93.1424,VALID,0,VALID,22.6477,VALID,98,VALID,0,
2010-02-22, 03:50:04,VALID,1002.07,VALID,0,VALID,93.1577,VALID,0,VALID,22.6477,VALID,98,VALID,0,
2010-02-22, 03:51:04,VALID,1002.04,VALID,0,VALID,93.1577,VALID,0,VALID,22.6689,VALID,98,VALID,0,
2010-02-22, 03:52:04,VALID,1002.05,VALID,0,VALID,93.1424,VALID,0,VALID,22.6477,VALID,98,VALID,0,